Retour au catalogue

QIANFAN-181

ActifCommunicationsPO
NORAD 69398·PAYLOAD·🇨🇳 China

Lancé Jun 4, 2026 depuis Taiyuan Satellite Launch Center

Loading…

Prochains Passages (prochaines 24 heures)

TLE

FraisSource: Space-Track

Époque: Sep 14, 2026, 13:34 UTC

1 69398U 26124S   26257.56529239  .00000132  00000-0  18653-3 0  9995
2 69398  89.0075 352.6451 0002148 106.5513 253.5875 13.51022906 14096

Suivez QIANFAN-181 en temps réel avec AllMySat

Download on the App Store